www.pogodaiklimat.ru

Погода и климат >> Архив погоды >> Россия >> Красноярский край >> Ирбейское


ПОГОДА в Ирбейском

  • Прогноз погоды в Ирбейском
  • Монитор погоды в Ирбейском

АРХИВ ПОГОДЫ в Ирбейском

Время (UTC), дата Ветер
(напр.,м/с)
 
Видим.   Явления Облачность Т
(С)
Тd
(С)
f
(%)
Тe
(С)
Тes
(С)
Комфортность P
(гПа)
Po
(гПа)
Тmin
(С)
Tmax
(С)
R
(мм)
R24
(мм)
S
(см)
21 11.07 штиль 0 20 км местами туман поземный 4/4 600 м
[Cb cap]
+9.9 +9.5 97 +9 +9 1018.8 988.5
00 12.07 ЮВ 1 20 км 3/3 600 м
[Cb cap Ci sp]
+16.6 +12.3 76 +17 +20 1018.8 989.2 +9.5
03 12.07 В 2 20 км 4/3 600 м
[Cu med, cong Ac trans Ci fib]
+21.3 +12.9 59 +24 +31 комфорт 1017.8 988.8
06 12.07 СВ 3 20 км 8/8 600 м
[Cb cap]
+22.6 +11.3 49 +25 +27 комфорт 1016.8 987.9
09 12.07 СВ 3 20 км 8/6 600 м
[Cb cap Ac trans]
+24.1 +11.6 45 +26 +28 жарко 1015.7 987.0
12 12.07 СВ 3 20 км 4/4 600 м
[Cb cap]
+23.2 +11.4 47 +25 +26 комфорт 1015.5 986.7 +24.8
15 12.07 СВ 2 20 км 3/3 600 м
[Cb cap Ac lent]
+16.3 +12.1 76 +16 +16 1017.1 987.5
18 12.07 штиль 0 н/о ясно +11.5 +10.8 95 +11 +11 1017.7 987.6
21 12.07 штиль 0 20 км местами туман поземный ясно +8.6 +8.1 97 +8 +8 1017.2 986.8
00 13.07 В 1 20 км местами туман поземный ясно +14.2 +11.9 86 +15 +18 1016.4 986.6 +8.3
03 13.07 В 2 20 км 8/0
[Ci sp]
+20.6 +12.7 61 +24 +33 комфорт 1014.8 985.7
06 13.07 В 4 4000 м дым 9/0
[Ci sp]
+24.3 +12.8 49 +26 +35 жарко 1012.5 983.9
09 13.07 СВ 4 4000 м дым 8/3 1000 м
[Sc Ac lent Ci sp]
+25.3 +14.1 50 +28 +30 жарко 1010.6 982.1
12 13.07 СВ 3 4000 м дым 8/3 1000 м
[Sc Ac lent Ci sp]
+23.5 +14.2 56 +26 +27 жарко 1010.3 981.7 +25.4
15 13.07 В 1 4000 м дым 9/8 600 м
[Cb cap Ac lent]
+19.1 +13.4 70 +21 +21 комфорт 1010.5 981.4
18 13.07 штиль 0 н/о н/о +14.6 +11.6 82 +14 +14 1010.4 980.9
21 13.07 штиль 0 4000 м дымка 9/6 600 м
[Cb cap Ac lent Ci sp]
+13.7 +12.9 95 +13 +13 1008.3 978.7
00 14.07 З 1 20 км в посл. час ливневой дождь 9/8 600 м
[Cb cap Ac lent]
+15.8 +12.8 82 +16 +17 1008.3 979.0 +13.5 0.0
03 14.07 В 2 4000 м слаб. ливневой дождь 9/8 600 м
[Cb cap Ac lent Ci sp]
+16.1 +13.4 84 +16 +18 1008.1 978.8
06 14.07 В 1 20 км {ливн. осадки} 4/3 600 м
[Cb cap Ac lent Ci sp]
+22.3 +15.3 65 +26 +38 жарко 1007.1 978.5
09 14.07 ЮВ 2 20 км 8/4 600 м
[Cb cap Ci sp]
+24.0 +14.9 57 +27 +31 жарко 1006.5 978.1
12 14.07 Ю 1 4000 м гроза, ливневой дождь 9/8 600 м
[Cb cap Ac lent Ci sp]
+21.0 +16.0 73 +26 +26 душно 1007.0 978.2 +24.3 0.0
15 14.07 штиль 0 20 км местами туман поземный {гроза, ливн. осадки} 9/9 600 м
[Cb cap]
+15.0 +14.4 96 +15 +15 1007.6 978.2
18 14.07 З 1 н/о гроза, ливневой дождь 9/8 600 м
[Cb cap Ac lent]
+14.4 +14.0 97 +15 +15 1007.1 977.7
21 14.07 З 1 200 м туман {гроза, ливн. осадки} 8/8 600 м
[Cb cap]
+12.7 +12.4 98 +13 +13 1006.3 976.7
00 15.07 З 1 500 м туман {гроза, ливн. осадки} 8/6 600 м
[Cb cap Ac lent]
+13.9 +13.7 99 +14 +15 1005.9 976.5 +11.7 1
03 15.07 З 2 20 км {туман} 9/8 600 м
[Cb cap Ac lent]
+18.0 +14.1 78 +19 +20 1005.1 976.1
06 15.07 В 2 20 км {туман} 9/8 600 м
[Cb cap Ac trans]
+20.9 +15.5 71 +25 +27 комфорт 1004.6 975.9
09 15.07 В 2 20 км 9/4 600 м
[Cb cap Ac lent]
+23.0 +13.8 56 +26 +28 жарко 1003.8 975.3
12 15.07 СВ 2 20 км гроза без осадков 8/6 600 м
[Cb cap Ac lent]
+19.5 +14.3 72 +22 +22 комфорт 1005.1 976.3 +23.2
15 15.07 З 1 4000 м дымка {гроза, ливн. осадки} 6/3 600 м
[Cb cap Ac lent Ci sp]
+15.1 +14.5 96 +16 +16 1005.8 976.5
18 15.07 штиль 0 н/о туман {гроза, ливн. осадки} 4/4 1000 м
[Sc]
+12.4 +12.0 97 +12 +12 1006.5 976.8
21 15.07 штиль 0 200 м туман 3/0
[Ci sp]
+11.6 +11.3 98 +11 +11 1006.5 976.8
00 16.07 В 1 500 м туман 8/0
[Ci sp]
+14.1 +13.8 98 +14 +17 1007.0 977.5 +11.5 0.5
03 16.07 В 1 4000 м дымка {туман} 9/8 600 м
[Cb cap Ac lent Ci sp]
+16.5 +15.3 93 +17 +19 1006.9 977.7
06 16.07 В 1 20 км {туман} 9/9 600 м
[Cb cap]
+22.8 +15.7 64 +27 +29 душно 1005.4 976.9
09 16.07 СВ 3 20 км 6/6 600 м
[Cb cap]
+25.1 +16.5 59 +29 +32 душно 1004.7 976.4
12 16.07 СВ 3 20 км 4/3 1000 м
[Sc Ac trans Ci fib]
+23.4 +15.9 63 +28 +29 душно 1005.3 976.8 +25.2
15 16.07 СВ 2 20 км 3/3 1000 м
[Sc]
+17.4 +14.2 81 +18 +18 1006.5 977.4
18 16.07 СВ 1 н/о 4/4 1000 м
[Sc]
+15.5 +13.4 87 +16 +16 1005.5 976.2
21 16.07 штиль 0 20 км местами туман поземный ясно +12.9 +12.5 97 +12 +12 1005.2 975.7
00 17.07 В 2 20 км 6/6 1000 м
[Sc]
+16.7 +15.2 91 +17 +18 1004.6 975.5 +12.3
03 17.07 СВ 1 20 км 8/4 600 м
[Cb cap Ac lent Ci sp]
+21.4 +15.7 70 +25 +30 комфорт 1003.6 975.0
06 17.07 ЮЗ 4 20 км 9/9 600 м
[Cb cap]
+21.7 +15.9 70 +25 +26 комфорт 1004.8 976.1
09 17.07 З 1 20 км 9/8 600 м
[Cb cap Ac lent Ci sp]
+22.5 +16.6 69 +27 +29 душно 1005.4 976.8
12 17.07 штиль 0 20 км {ливн. осадки} 9/6 600 м
[Cb cap Ac lent Ci sp]
+22.6 +16.6 69 +27 +28 душно 1005.9 977.3 +24.2 0.0
15 17.07 штиль 0 20 км 6/4 600 м
[Cb cap Ac lent Ci sp]
+15.7 +14.9 95 +15 +15 1007.5 978.2
18 17.07 штиль 0 н/о местами туман поземный 4/4 600 м
[Cb cap]
+11.0 +10.6 97 +10 +10 1008.0 978.2
21 17.07 штиль 0 500 м туман 3/3 1000 м
[Sc]
+10.9 +10.5 97 +10 +10 1007.8 978.0
00 18.07 штиль 0 500 м туман 4/3 1000 м
[Sc Ac trans Ci fib]
+15.3 +14.9 97 +15 +17 1008.0 978.6 +10.1
03 18.07 В 1 20 км {туман} 4/3 600 м
[Cb cap Ci sp]
+23.5 +16.0 63 +27 +35 душно 1006.8 978.3
06 18.07 ЮЗ 2 20 км {туман} 4/4 600 м
[Cb cap]
+26.7 +13.4 44 +29 +38 жарко 1005.7 977.5
09 18.07 В 1 20 км 3/3 600 м
[Cb cap]
+27.9 +13.6 41 +30 +37 жарко 1004.3 976.3
12 18.07 СВ 2 20 км 4/0 2000 м
[Ac lent Ci sp]
+25.6 +16.1 56 +29 +30 душно 1004.3 976.1 +28.1
15 18.07 СВ 1 20 км ясно +17.3 +14.8 85 +18 +18 1005.1 976.0
18 18.07 З 1 н/о 9/9 600 м
[Cb cap]
+15.9 +15.2 96 +17 +17 1005.2 976.0

 

Местоположение метеостанции Ирбейское (Красноярский край, Россия): широта 55.63 долгота 95.47 высота над уровнем моря 252 м.

В архиве по умолчанию представлена погода в Ирбейском за последнюю неделю. Архивные данные за месяц целиком и за предыдущие месяцы, начиная с января 2011 года, Вы можете получить, выбрав интересующий диапазон дат из раскрывающегося списка и нажав кнопку "Ввод!".


*Определитесь, кто Вы:
робот инопланетянин человек

Внимание! Время в таблицах - всемирное. Для получения местного времени необходимо прибавить поправку, которая равна 7 ч.

Смотрите также архив погоды в соседних городах и на ближайших метеорологических станциях:

Погода в Агинском (Красноярский край, Россия) (56 км)
Погода в Солянке (Красноярский край, Россия) (61 км)
Погода в Канске (Красноярский край, Россия) (64 км)
Погода в Уяре (Красноярский край, Россия) (74 км)
Погода в Шалинском (Красноярский край, Россия) (108 км)
Погода в Абане (Красноярский край, Россия) (124 км)
Погода в Дзержинском (Красноярский край, Россия) (137 км)
Погода в Железногорске (Красноярский край, Россия) (140 км)
Погода в Анастасино (Красноярский край, Россия) (144 км)
Погода в Тайшете (Иркутская область, Россия) (162 км)

Пояснения к столбцам:

Ветер - указаны скорость ветра в м/с - средняя за 10 мин, порывы в срок и между сроками (в фигурных скобках) и направление, откуда дует ветер: С - северный, СВ - северо-восточный, В - восточный, ЮВ - юго-восточный, Ю - южный, ЮЗ - юго-западный, З - западный, СЗ - северо-западный.
Видимость - горизонтальная дальность видимости в метрах или километрах. При видимости от 1 до 10 км при отсутствии осадков обычно наблюдается дымка, при ухудшении видимости до 1 км и менее - туман. В сухую погоду видимость может ухудшаться дымом, пылью или мглою.
Явления - указаны атмосферные явления, наблюдавшиеся в срок или в последний час перед сроком; фигурными скобками обозначены явления, наблюдавшиеся между сроками (за 1-3 часа до срока); квадратными скобками обозначены град или гололедные отложения с указанием их диаметра в мм.
Облачность - указаны через наклонную черту общая и нижняя облачность в баллах и высота нижней границы облаков в метрах; квадратными скобками обозначены формы облаков: Ci - перистые, Cs - перисто-слоистые, Cc - перисто-кучевые, Ac - высококучевые, As - высокослоистые, Sc - слоисто-кучевые, Ns - слоисто-дождевые, Cu - кучевые, Cb - кучево-дождевые. Подробнее классификацию облаков см. в Атласе облаков (PDF).
T - Температура воздуха - температура, измеренная на высоте 2 м над землей.
Td - Температура точки росы - температура, при понижении до которой содержащийся в воздухе водяной пар достигнет насыщения.
f - Относительная влажность воздуха - влажноcть воздуха, измеренная на высоте 2 м над землей.
Te - Эффективная температура - температура, которую ощущает одетый по сезону человек в тени. Характеристика душности погоды. При расчете учитывается влияние влажности воздуха и скорости ветра на теплоощущения человека.
Tes - Эффективная температура на солнце - температура, которую ощущает человек, с поправкой на солнечный нагрев. Характеристика знойности погоды. Зависит от высоты солнца над горизонтом, облачности и скорости ветра. Ночью, в пасмурную погоду, а также при ветре 12 м/с и более поправка равна нулю.
P - Атмосферное давление - приведенное к уровню моря атмосферное давление.
Po - Атмосферное давление - измеренное на уровне метеостанции атмосферное давление.
Tmin - Минимальная температура - минимум температуры воздуха на высоте 2 м над землей.
Tmax - Максимальная температура - максимум температуры воздуха на высоте 2 м над землей.
R - Количество осадков - Количество выпавших осадков за период времени, мм. При наведении курсора мыши на число - период времени, за который выпало указанное количество осадков.
R24 - Количество осадков - Количество выпавших осадков за 24 часа, мм.
S - Снежный покров - Высота снежного покрова, см. При наведении курсора мыши на число - состояние снежного покрова и степень покрытия местности в баллах.